OneWeb SL0300

operational
NORAD ID: 49089 Int'l Des: 2021-075 Owner: ONEWEBN Country: UK Constellation: oneweb
LEOCIRCULARPOLARONEWEB_TYPE

OneWeb SL0300について

説明を読み込み中...

リアルタイム位置

3D地球を読み込み中...

次回通過

高度履歴

Altitude vs Time

uPlot chart will show altitude changes over time

軌道要素

1 49089U 21075Q 26033.46947240 .00000094 00000-0 22489-3 0 9996
2 49089 87.8949 17.3938 0001822 74.3689 285.7641 13.12443615217539
Epoch: Feb 2, 2026 • Age: 17 hours

現在のステータス

高度 1215.2 km
速度 7.25 km/s
衛星直下点 12.45°N, 172.59°W
打ち上げ日 Aug 21, 2021
運用期間 4.4 years
タイプ internet

技術仕様

分類 Payload
質量 148.00 kg
乾燥質量 140.00 kg
総質量 148.00 kg
長さ 1.30 m
直径 1.00 m
スパン 5.00 m
形状 Trapezoid+2 pan
製造者 ONEWUS
バスタイプ ARROW
フェーズステータス In Orbit
所有者/国 ONEWEBN/UK

大規模コンステレーション

Loading constellations...